Location: Dumpton Point
(51.3500°N, 1.4433°E)
Time: 22:27:16
(UTC+00:00)

Vanguard 2 Rocket - Pass Details

Date: 29 September 2022
Orbit: 555 x 3321 km, 32.9° (Epoch: 05 December)

Event Time Altitude Azimuth Distance (km) Brightness Sun altitude
Rises 01:35:47 0° 239° (WSW) 4,975 - -35.7°
Reaches altitude 10° 01:41:08 10° 220° (SW) 3,375 - -35.3°
Maximum altitude 01:45:28 15° 187° (S) 2,497 - -34.8°
Drops below altitude 10° 01:48:51 10° 152° (SSE) 2,519 - -34.5°
Sets 01:51:57 0° 129° (SE) 3,150 - -34.2°
